Location: Noordwijk
(52.2400°N, 4.4500°E)
Time: 04:55:08
(UTC+00:00)

SL-14 DEB - Visible Passes

Search period start: 03 June 2023 00:00
Search period end: 13 June 2023 00:00
Orbit: 736 x 760 km, 82.8° (Epoch: 29 May)

Date Brightness Start Highest point End Pass type
(mag) Time Alt. Az. Time Alt. Az. Time Alt. Az.
03 Jun ? 00:09:36 10° ESE 00:12:47 17° E 00:16:00 10° NE visible
03 Jun ? 01:47:57 12° SSW 01:52:39 82° W 01:57:51 10° N visible
04 Jun ? 01:06:00 13° SSE 01:10:21 53° E 01:15:23 10° NNE visible
05 Jun ? 00:24:01 11° SE 00:28:14 28° E 00:32:36 10° NNE visible
05 Jun ? 02:03:52 11° SSW 02:08:33 48° WNW 02:13:34 10° N visible
05 Jun ? 23:43:20 10° ESE 23:46:16 15° E 23:49:12 10° NE visible
06 Jun ? 01:21:52 16° S 01:26:03 89° W 01:31:16 10° N visible
07 Jun ? 00:39:50 16° SSE 00:43:45 49° E 00:48:43 10° NNE visible
07 Jun ? 02:20:05 10° SW 02:24:33 29° WNW 02:29:03 10° N visible
07 Jun ? 23:57:46 12° SE 00:01:36 26° E 00:05:50 10° NNE visible
08 Jun ? 01:37:37 14° SSW 01:41:51 52° WNW 01:46:55 10° N visible
08 Jun ? 23:17:02 10° ESE 23:19:39 14° ENE 23:22:16 10° NE visible
09 Jun ? 00:55:33 18° S 00:59:22 84° E 01:04:34 10° NNE visible
10 Jun ? 00:13:27 17° SSE 00:17:03 44° E 00:21:57 10° NNE visible
10 Jun ? 01:53:18 10° SW 01:57:46 31° WNW 02:02:22 10° N visible
10 Jun ? 23:31:19 12° SE 23:34:54 24° E 23:38:59 10° NNE visible
11 Jun ? 01:11:10 17° SSW 01:15:04 57° WNW 01:20:11 10° N visible
11 Jun ? 22:50:41 10° ESE 22:52:55 13° ENE 22:55:10 10° NE visible
12 Jun ? 00:29:02 21° S 00:32:34 77° E 00:37:45 10° NNE visible
12 Jun ? 02:10:04 10° WSW 02:13:46 20° WNW 02:17:30 10° NNW visible
12 Jun ? 23:46:52 18° SSE 23:50:14 41° E 23:55:03 10° NNE visible
